When you browse on this site, cookies collect data to enhance your experience and personalize the content and advertising you see.
Visit our Privacy Policy to learn more. By continuing to use the site, you agree to this use of cookies and data.
  • In United Kingdom
  • List of Countries
  • For 7 days
  • Water Temperature
  • Weather Map
  • Weather Widgets
  • user-avatar
    Login

    Hourly Weather Curtea de Arges

    Today, 23 September, Monday

    Time Temperature Precipitation Wind Pressure Humidity
    00:00 +11°C° 0 mm 1 mps 717 mmHg 48%
    01:00 +12°C° 0 mm 1 mps 717 mmHg 47%
    02:00 +12°C° 0 mm 1 mps 717 mmHg 46%
    03:00 +12°C° 0 mm 1 mps 716 mmHg 45%
    04:00 +12°C° 0 mm 1 mps 716 mmHg 45%
    05:00 +12°C° 0 mm 1 mps 716 mmHg 45%
    06:00 +13°C° 0 mm 1 mps 716 mmHg 43%
    07:00 +13°C° 0 mm 0 mps 716 mmHg 42%
    08:00 +15°C° 0 mm 0 mps 716 mmHg 40%
    09:00 +19°C° 0 mm 1 mps 716 mmHg 36%
    10:00 +21°C° 0 mm 1 mps 716 mmHg 32%
    11:00 +23°C° 0 mm 2 mps 717 mmHg 27%
    12:00 +23°C° 0 mm 2 mps 716 mmHg 28%
    13:00 +23°C° 0 mm 2 mps 716 mmHg 28%
    14:00 +24°C° 0 mm 2 mps 715 mmHg 28%
    15:00 +21°C° 0 mm 2 mps 715 mmHg 33%
    16:00 +20°C° 0 mm 1 mps 714 mmHg 37%
    17:00 +19°C° 0 mm 1 mps 714 mmHg 41%
    18:00 +18°C° 0 mm 1 mps 714 mmHg 43%
    19:00 +16°C° 0 mm 0 mps 714 mmHg 44%
    20:00 +15°C° 0 mm 0 mps 715 mmHg 45%
    21:00 +16°C° 0.1 mm 1 mps 715 mmHg 51%
    22:00 +15°C° 0.1 mm 1 mps 715 mmHg 56%
    23:00 +15°C° 0.1 mm 1 mps 714 mmHg 61%

    Tomorrow, 24 September, Tuesday

    Time Temperature Precipitation Wind Pressure Humidity
    00:00 +15°C° 0 mm 1 mps 714 mmHg 60%
    01:00 +15°C° 0 mm 1 mps 715 mmHg 58%
    02:00 +15°C° 0 mm 1 mps 715 mmHg 57%
    03:00 +15°C° 0 mm 1 mps 714 mmHg 58%
    04:00 +15°C° 0 mm 1 mps 714 mmHg 59%
    05:00 +15°C° 0 mm 1 mps 714 mmHg 59%
    06:00 +15°C° 0 mm 1 mps 714 mmHg 59%
    07:00 +15°C° 0 mm 1 mps 714 mmHg 58%
    08:00 +15°C° 0 mm 1 mps 714 mmHg 58%
    09:00 +16°C° 0 mm 1 mps 714 mmHg 58%
    10:00 +16°C° 0 mm 2 mps 715 mmHg 57%
    11:00 +16°C° 0 mm 2 mps 715 mmHg 57%
    12:00 +17°C° 0 mm 2 mps 715 mmHg 59%
    13:00 +17°C° 0 mm 2 mps 715 mmHg 61%
    14:00 +17°C° 0 mm 3 mps 715 mmHg 64%
    15:00 +16°C° 0 mm 2 mps 715 mmHg 67%
    16:00 +16°C° 0 mm 2 mps 714 mmHg 69%
    17:00 +15°C° 0 mm 1 mps 714 mmHg 72%
    18:00 +15°C° 0 mm 1 mps 714 mmHg 74%
    19:00 +15°C° 0 mm 1 mps 714 mmHg 75%
    20:00 +14°C° 0 mm 1 mps 715 mmHg 77%
    21:00 +14°C° 0 mm 1 mps 715 mmHg 76%
    22:00 +14°C° 0 mm 1 mps 715 mmHg 76%
    23:00 +14°C° 0 mm 1 mps 715 mmHg 76%

    Day after tomorrow, 25 September, Wednesday

    Time Temperature Precipitation Wind Pressure Humidity
    00:00 +14°C° 0 mm 1 mps 715 mmHg 76%
    01:00 +14°C° 0 mm 1 mps 715 mmHg 77%
    02:00 +14°C° 0 mm 1 mps 715 mmHg 77%
    03:00 +14°C° 0 mm 1 mps 715 mmHg 78%
    04:00 +14°C° 0 mm 1 mps 714 mmHg 80%
    05:00 +13°C° 0 mm 1 mps 714 mmHg 81%
    06:00 +14°C° 0 mm 1 mps 714 mmHg 79%
    07:00 +14°C° 0 mm 1 mps 714 mmHg 78%
    08:00 +15°C° 0 mm 1 mps 714 mmHg 76%
    09:00 +15°C° 0 mm 1 mps 715 mmHg 73%
    10:00 +16°C° 0 mm 2 mps 715 mmHg 69%
    11:00 +17°C° 0 mm 2 mps 715 mmHg 66%
    12:00 +18°C° 0 mm 2 mps 715 mmHg 65%
    13:00 +19°C° 0 mm 1 mps 715 mmHg 64%
    14:00 +19°C° 0 mm 1 mps 714 mmHg 63%
    15:00 +19°C° 0 mm 1 mps 714 mmHg 64%
    16:00 +19°C° 0 mm 1 mps 714 mmHg 66%
    17:00 +18°C° 0 mm 1 mps 714 mmHg 67%
    18:00 +18°C° 0 mm 1 mps 714 mmHg 70%
    19:00 +16°C° 0 mm 1 mps 714 mmHg 73%
    20:00 +15°C° 0 mm 1 mps 714 mmHg 76%
    21:00 +15°C° 0.2 mm 1 mps 714 mmHg 77%
    22:00 +15°C° 0.2 mm 1 mps 714 mmHg 79%
    23:00 +15°C° 0.2 mm 1 mps 714 mmHg 80%

    26 September, Thursday

    Time Temperature Precipitation Wind Pressure Humidity
    00:00 +15°C° 0.2 mm 1 mps 714 mmHg 82%
    01:00 +14°C° 0.2 mm 1 mps 713 mmHg 84%
    02:00 +14°C° 0.2 mm 1 mps 713 mmHg 86%
    03:00 +14°C° 0.4 mm 1 mps 713 mmHg 88%
    04:00 +14°C° 0.4 mm 1 mps 713 mmHg 90%
    05:00 +14°C° 0.4 mm 1 mps 713 mmHg 92%
    06:00 +13°C° 0.1 mm 0 mps 713 mmHg 90%
    07:00 +14°C° 0.1 mm 0 mps 714 mmHg 89%
    08:00 +14°C° 0.1 mm 0 mps 714 mmHg 88%
    09:00 +15°C° 0.1 mm 0 mps 714 mmHg 82%
    10:00 +19°C° 0.1 mm 1 mps 714 mmHg 77%
    11:00 +20°C° 0.1 mm 1 mps 715 mmHg 72%
    12:00 +20°C° 0.6 mm 1 mps 714 mmHg 72%
    13:00 +19°C° 0.6 mm 2 mps 714 mmHg 72%
    14:00 +19°C° 0.6 mm 2 mps 714 mmHg 72%
    15:00 +18°C° 1.9 mm 2 mps 714 mmHg 79%
    16:00 +16°C° 1.9 mm 2 mps 714 mmHg 86%
    17:00 +15°C° 1.9 mm 2 mps 714 mmHg 93%
    18:00 +15°C° 0.4 mm 2 mps 714 mmHg 93%
    19:00 +14°C° 0.4 mm 2 mps 714 mmHg 93%
    20:00 +14°C° 0.4 mm 1 mps 715 mmHg 93%
    21:00 +13°C° 0 mm 2 mps 715 mmHg 93%
    22:00 +13°C° 0 mm 2 mps 715 mmHg 93%
    23:00 +12°C° 0 mm 2 mps 715 mmHg 93%

    27 September, Friday

    Time Temperature Precipitation Wind Pressure Humidity
    00:00 +12°C° 0 mm 2 mps 716 mmHg 92%
    01:00 +12°C° 0.1 mm 2 mps 716 mmHg 91%
    02:00 +12°C° 0.1 mm 2 mps 716 mmHg 91%
    03:00 +12°C° 0 mm 2 mps 716 mmHg 91%
    04:00 +12°C° 0 mm 2 mps 716 mmHg 90%
    05:00 +10°C° 0 mm 2 mps 717 mmHg 90%
    06:00 +12°C° 0 mm 2 mps 717 mmHg 87%
    07:00 +13°C° 0 mm 1 mps 717 mmHg 84%
    08:00 +14°C° 0 mm 1 mps 717 mmHg 81%
    09:00 +16°C° 0 mm 1 mps 718 mmHg 71%
    10:00 +20°C° 0 mm 1 mps 719 mmHg 61%
    11:00 +22°C° 0 mm 1 mps 719 mmHg 51%
    12:00 +22°C° 0 mm 1 mps 719 mmHg 48%
    13:00 +23°C° 0 mm 1 mps 719 mmHg 45%
    14:00 +23°C° 0 mm 1 mps 718 mmHg 42%
    15:00 +23°C° 0 mm 1 mps 718 mmHg 45%
    16:00 +22°C° 0 mm 1 mps 718 mmHg 49%
    17:00 +21°C° 0 mm 1 mps 718 mmHg 52%
    18:00 +19°C° 0 mm 1 mps 718 mmHg 57%
    19:00 +18°C° 0 mm 1 mps 718 mmHg 63%
    20:00 +15°C° 0 mm 1 mps 718 mmHg 68%
    21:00 +14°C° 0 mm 1 mps 719 mmHg 71%
    22:00 +14°C° 0 mm 1 mps 719 mmHg 73%
    23:00 +13°C° 0 mm 1 mps 719 mmHg 76%

    28 September, Saturday

    Time Temperature Precipitation Wind Pressure Humidity
    00:00 +13°C° 0 mm 1 mps 719 mmHg 77%
    01:00 +13°C° 0 mm 1 mps 719 mmHg 78%
    02:00 +13°C° 0 mm 1 mps 719 mmHg 79%
    03:00 +12°C° 0 mm 1 mps 719 mmHg 80%
    04:00 +12°C° 0 mm 1 mps 719 mmHg 80%
    05:00 +12°C° 0 mm 1 mps 719 mmHg 81%
    06:00 +13°C° 0 mm 1 mps 719 mmHg 77%
    07:00 +14°C° 0 mm 1 mps 719 mmHg 73%
    08:00 +16°C° 0 mm 1 mps 719 mmHg 68%
    09:00 +19°C° 0 mm 1 mps 719 mmHg 61%
    10:00 +19°C° 0 mm 2 mps 719 mmHg 54%
    11:00 +21°C° 0 mm 2 mps 719 mmHg 47%
    12:00 +23°C° 0 mm 2 mps 719 mmHg 45%
    13:00 +23°C° 0 mm 2 mps 718 mmHg 43%
    14:00 +24°C° 0 mm 2 mps 718 mmHg 40%
    15:00 +23°C° 0 mm 2 mps 717 mmHg 43%
    16:00 +23°C° 0 mm 1 mps 717 mmHg 46%
    17:00 +22°C° 0 mm 1 mps 717 mmHg 48%
    18:00 +21°C° 0 mm 1 mps 717 mmHg 52%
    19:00 +19°C° 0 mm 1 mps 717 mmHg 57%
    20:00 +16°C° 0 mm 2 mps 716 mmHg 61%
    21:00 +15°C° 0 mm 2 mps 717 mmHg 62%
    22:00 +15°C° 0 mm 2 mps 717 mmHg 63%
    23:00 +15°C° 0 mm 2 mps 717 mmHg 64%
    Show more